カタログに戻る

STARLINK-36862

運用中通信VLEO
NORAD 68003·PAYLOAD·🇺🇸 United States

打ち上げ Feb 27, 2026 から Vandenberg Space Force Base

Loading…

次のパス (今後24時間)

TLE

最新Source: CelesTrak SupGP

元期: Sep 14, 2026, 20:55 UTC

1 68003C 26039T   26257.87201389  .00035160  00000+0  12736-2 0  2579
2 68003  43.0007  60.7310 0001498 271.6793 104.5491 15.27559199    15

AllMySatでSTARLINK-36862をリアルタイム追跡

Download on the App Store